Terminal Aerodrome Forecast
Issued by NWS Amarillo, TX

Home | Current Version | Previous Version | Text Only | Print | Product List | Glossary On
Versions: 1 2 3 4 5 6 7 8 9 10 11 12 13 14 15 16 17 18 19 20 21 22 23 24 25 26 27 28 29 30
000
FTUS44 KAMA 010900 AAA
TAFGUY
TAF AMD
KGUY 010944Z 0110/0206 15008KT P6SM OVC020
     FM011300 VRB03KT 3SM BR OVC010
     FM011600 04008KT 5SM BR OVC007
     FM020200 04008KT 3SM BR OVC002=

USA.gov is the U.S. government's official web portal to all federal, state and local government web resources and services.